Regional Weather Roundup
Issued by NWS

Home | Current Version | Previous Version | Graphics & Text | Print | Product List | Glossary On
Versions: 1 2 3 4 5 6 7 8 9 10 11 12 13 14 15 16 17 18 19 20 21 22 23 24 25 26 27 28
000
ASUS45 KTFX 190710
RWRMT
MONTANA REGIONAL WEATHER ROUNDUP
NATIONAL WEATHER SERVICE GREAT FALLS MT
1200 AM MST FRI JAN 19 2018

NOTE: "FAIR" INDICATES FEW OR NO CLOUDS BELOW 12000 FEET WITH NO
SIGNIFICANT WEATHER AND/OR OBSTRUCTIONS TO VISIBILITY.

MTZ001>007-043-190800-
WEST OF THE DIVIDE

CITY           SKY/WX    TMP DP  RH WIND       PRES   REMARKS
KALISPELL      FAIR      35  33  92 MISG      29.73R
MISSOULA       MIX PCPN  33  31  92 SE3       29.76S VSB 1/2
BUTTE          LGT SNOW  33  31  92 NW3       29.69F FOG
MULLAN PASS    CLOUDY    24  23  96 W8        29.68F FOG     WCI  15
ANACONDA         N/A     32  32 100 CALM      29.72R
DEER LODGE       N/A     34  34 100 CALM      29.73F
EUREKA           N/A     32  27  80 MISG      29.74R
HAMILTON         N/A     34  34 100 CALM        N/A
PLAINS           N/A     34  30  85 CALM      29.78S
RONAN            N/A     34  32  93 SE7       29.74F WCI  28
$$

MTZ008-052>055-190800-
SOUTHWEST MONTANA

CITY           SKY/WX    TMP DP  RH WIND       PRES   REMARKS
BOZEMAN        RAIN      36  32  85 NW6       29.73R FOG     WCI  31
DILLON         LGT SNOW  27 N/A N/A SE9       29.71R WCI  18
ENNIS          CLOUDY    37  32  81 N17G31    29.73R WCI  28
W YELLOWSTONE  CLOUDY    37  32  81 SW14      29.75F WCI  29
THREE FORKS      N/A     34  32  92 CALM      29.74S
TWIN BRIDGES     N/A     36  29  76 CALM      29.73F
$$

MTZ009-010-012-014-046-048-049-054-190800-
EAST SLOPES AND CENTRAL MONTANA

CITY           SKY/WX    TMP DP  RH WIND       PRES   REMARKS
CUT BANK       FAIR      34  24  67 W8        29.63R WCI  27
GREAT FALLS    CLOUDY    36  32  85 S12       29.67F WCI  28
MALMSTROM AFB  CLOUDY    35  34  96 SW13      29.68F WCI  27
HELENA         MIX PCPN  35  34  96 CALM      29.70S
AUGUSTA        CLOUDY    34  29  81 W10       29.66S WCI  26
BOWMANS CRNR   MOCLDY    32  32  99 S13       29.68R FOG     WCI  23
CHOTEAU          N/A     34  30  86 W3        29.67R
CONRAD           N/A     36  30  79 SW7       29.69R WCI  30
FAIRFIELD      CLOUDY    36  29  78 SW9       29.66F WCI  29
POWER          MOCLDY    35  30  81 SW14      29.65F WCI  26
ULM            CLOUDY    36  34  95 S12       29.70F WCI  27
WHITE SULPHUR    N/A     32  32 100 W3        29.68S
$$

MTZ011-013-016-021-045-047-050-051-190800-
NORTH CENTRAL MONTANA

CITY           SKY/WX    TMP DP  RH WIND       PRES   REMARKS
HAVRE          FAIR      37  31  78 SW23      29.60R WCI  26
LEWISTOWN      LGT RAIN  34  33  96 W6        29.68R WCI  29
N BAR RANCH    LGT RAIN  36  32  87 NW9       29.68R WCI  29
CHINOOK          N/A     39  30  70 W17       29.59R WCI  30
DENTON         CLOUDY    37  33  84 MISG      29.65R
GRASS RANGE    LGT RAIN  36  34  90 CALM      29.64S
STANFORD       LGT RAIN  35  33  92 NW10      29.67R WCI  28
WINIFRED       CLOUDY    38  32  78 W6        29.67R
$$

MTZ017>020-022>027-061-062-190800-
NORTHEAST MONTANA

CITY           SKY/WX    TMP DP  RH WIND       PRES   REMARKS
GLASGOW        CLOUDY    42  31  64 W10       29.58F
GLENDIVE       FAIR      33  27  78 S8        29.61F WCI  26
JORDAN           N/A     35  31  85 W8        29.62R WCI  29
MALTA          CLOUDY    37  32  81 W13       29.59S WCI  29
SIDNEY         FAIR      34  29  82 S8        29.59R WCI  27
WOLF POINT     CLOUDY    37  29  72 SW6       29.59S
PLENTYWOOD       N/A     39  32  75 CALM      29.53F
POPLAR           N/A     34  28  80 CALM      29.58F
SCOBEY           N/A     39  27  62 CALM      29.56S
$$

MTZ028>42-056>058-190800-
SOUTHCENTRAL AND SOUTHEAST MONTANA

CITY           SKY/WX    TMP DP  RH WIND       PRES   REMARKS
BAKER          FAIR      28  25  88 CALM      29.62F
BILLINGS       MOCLDY    39  30  70 NW10      29.61S
LIVINGSTON     RAIN      37  35  92 NW13G23   29.68R WCI  29
MILES CITY     MOCLDY    29  25  85 CALM      29.62F
BIG TIMBER     CLOUDY    39  34  81 NE8       29.68R
FORSYTH          N/A     30  27  86 CALM      29.61F
HARLOWTON      LGT RAIN  35  32  90 W21       29.66S WCI  24
LAUREL           N/A     43  30  61 NW17      29.63R
ROUNDUP          N/A     40  29  65 N7        29.59F
$$

REGIONAL REPORTS...DAKOTAS

CITY           SKY/WX    TMP DP  RH WIND       PRES   REMARKS
WILLISTON      CLEAR     37  21  52 SW8       29.56F WCI  31
MINOT          FAIR      41  30  65 SW15      29.50F
DICKINSON      FAIR      36  27  69 W12       29.59R WCI  28
BEACH          MOCLDY    39  27  60 SW9       29.64S
CROSBY         CLOUDY    37  32  81 SW12      29.52S WCI  30
TIOGA          MOCLDY    37  36  93 SW9G16    29.55S WCI  31
WATFORD CITY   FAIR      36  30  80 SW13      29.55F WCI  27
BISMARCK       FAIR      30  26  85 CALM      29.58F
GRAND FORKS    FAIR      28  25  88 S14       29.50F WCI  17
FARGO          FAIR      32  26  78 S12         N/A  WCI  23
BUFFALO SD       N/A     41  28  60 SW7       29.56F
RAPID CITY     FAIR      41  27  57 CALM      29.66F
$$

REGIONAL REPORTS...WYOMING/IDAHO/WASHINGTON

CITY           SKY/WX    TMP DP  RH WIND       PRES   REMARKS
GILLETTE       FAIR      44  30  57 S16       29.66F
SHERIDAN       FAIR      51  28  41 W7        29.61F
BUFFALO WY     FAIR      47  27  45 SE3       29.68F
CODY           FAIR      38  26  62 VRB7      29.66F
YELLOWSTONE LA   N/A     34  31  88 CALM      29.80F
IDAHO FALLS    MOCLDY    44  31  60 S15       29.74F
SALMON         LGT RAIN  36  34  92 S6        29.76R WCI  31
BOISE          LGT RAIN  39  37  92 S5        29.85R
SPOKANE        FAIR      34  33  96 S8        29.77S WCI  27
$$

REGIONAL REPORTS...ALBERTA

CITY           SKY/WX    TMP DP  RH WIND       PRES   REMARKS
CALGARY        PTCLDY    32  10  40 SE3       29.49R
CARDSTON         N/A     34  19  55 W9          N/A  WCI  26
EDMONTON       MOCLDY    34  19  55 W8        29.38R WCI  27
FORT MCMURRAY  LGT RAIN  36  32  87 W12       29.22R WCI  27
HIGH LEVEL     LGT SNOW  27  27 100 CALM      29.27
LETHBRIDGE     PTCLDY    37  21  52 W35G43    29.55S WCI  24
LLOYDMINSTER   CLEAR     32  23  69 W15       29.35R WCI  22
MEDICINE HAT   CLOUDY    37  27  65 W21G29    29.52R WCI  27
PEACE RIVER    CLOUDY    32  27  80 W7        29.34R WCI  26
PINCHER CREEK  CLEAR     32  19  59 W24G31    29.61F WCI  19
WATERTON GATE    N/A     34  19  55 SW20G32     N/A  WCI  22
$$

REGIONAL REPORTS...SASKATCHEWAN

CITY           SKY/WX    TMP DP  RH WIND       PRES   REMARKS
CORONACH         N/A     39  32  75 W17         N/A  WCI  30
CYPRESS HILLS    N/A     36  16  44 W15G28      N/A  WCI  26
ESTEVAN        MOCLDY    37  30  75 SW15      29.48S WCI  28
MOOSE JAW        N/A     39  28  65 W18         N/A  WCI  30
PRINCE ALBERT  CLOUDY    27  25  93 W12       29.31R WCI  16
REGINA         PTCLDY    34  27  75 W12       29.41S WCI  25
ROCKGLEN         N/A     36  30  80 W14         N/A  WCI  27
SASKATOON      MOCLDY    30  28  93 SW6       29.33F WCI  24
SWIFT CURRENT  CLOUDY    37  27  65 W31G43    29.42F WCI  25
VAL MARIE        N/A     36  30  80 W10         N/A  WCI  28
$$




USA.gov is the U.S. government's official web portal to all federal, state and local government web resources and services.